Simultaneous Nadir Overpasses (SNOs) Predictions

Prediction of SNOs between AURA and NPP Satellite Orbit:

Table of predicted SNOs for the next 14.0 days since TLE Epoch: 6/7/2025
Index Date (AURA) Time (AURA) Lat,Lon (AURA) SZA (AURA ) Date (NPP) Time (NPP) Lat,Lon (NPP) SZA (NPP ) Distance(km) Time Diff (sec)
1 06/09/2025 01:36:22 81.09, 75.69 65.81 06/09/2025 01:35:23 81.10, 75.80 65.83 2.07 59
2 06/09/2025 02:25:41 -81.12,-116.17 114.27 06/09/2025 02:26:07 -81.11,-116.30 114.27 2.23 26
3 06/11/2025 12:48:05 81.11, -91.90 65.59 06/11/2025 12:47:49 81.11, -91.93 65.61 0.65 16
4 06/11/2025 13:37:24 -81.14, 76.27 114.49 06/11/2025 13:38:32 -81.14, 76.35 114.54 1.33 68
5 06/13/2025 23:10:30 -81.09, -67.79 114.49 06/13/2025 23:09:33 -81.09, -67.91 114.43 2.03 57
6 06/13/2025 23:59:48 81.11, 100.29 65.46 06/14/2025 00:00:15 81.12, 100.30 65.44 0.49 27
7 06/16/2025 10:22:11 -81.13, 124.94 114.66 06/16/2025 10:21:57 -81.12, 125.04 114.67 1.85 14
8 06/16/2025 11:11:30 81.13, -67.37 65.34 06/16/2025 11:12:41 81.13, -67.50 65.31 2.13 71
9 06/18/2025 20:44:33 81.12, 149.21 65.33 06/18/2025 20:43:39 81.11, 149.32 65.35 1.88 54



Historial Predications of SNOs between AURA and NPP
